Regional Weather Roundup
Issued by NWS San Diego, CA

Home | Current Version | Previous Version | Text Only | Print | Product List | Glossary On
Versions: 1 2 3 4 5 6 7 8 9 10 11 12 13 14 15 16 17 18 19 20 21 22 23 24 25 26 27 28 29 30 31 32 33 34 35 36 37 38 39 40 41 42 43 44 45 46 47 48 49 50
156
ASUS46 KSGX 192211
RWRSGX

SAN DIEGO HOURLY WEATHER ROUNDUP
NATIONAL WEATHER SERVICE SAN DIEGO CA
300 PM PDT TUE SEP 19 2017

NOTE: "FAIR" INDICATES FEW OR NO CLOUDS BELOW 12,000 FEET WITH NO
SIGNIFICANT WEATHER AND/OR OBSTRUCTIONS TO VISIBILITY.

CAZ042-043-060-061-PZZ750-775-192300-

GREATER SAN DIEGO AREA

CITY           SKY/WX    TMP DP  RH WIND       PRES   REMARKS
SAN DIEGO AP   MOSUNNY   73  61  65 SW10      29.91F
NATIONAL CITY    N/A     73  64  73 S5        29.92F
CHULA VISTA      N/A     75  64  70 W5        29.82F
IMPERIAL BEACH MOSUNNY   72  59  63 SW13G21   29.90F
BROWN FIELD    SUNNY     74  59  59 W8        29.89F
MIRAMAR MCAS   MOSUNNY   79  60  52 SW12      29.89F
MONTGOMERY FLD SUNNY     77  58  51 SW10      29.89F
GILLESPIE FLD  SUNNY     73  57  56 SW9       29.89S

$$

NORTH SAN DIEGO COUNTY

CITY           SKY/WX    TMP DP  RH WIND       PRES   REMARKS
CAMP PENDLETON MOSUNNY   77  55  46 S12       29.88S
OCEANSIDE AP   SUNNY     76  61  59 SW10      29.87F
OCEANSIDE HBR    N/A     70  62  76 W9        29.91S
VISTA            N/A     75  62  62 SW3       29.85F
CARLSBAD       SUNNY     72  59  63 SW9       29.88F
DEL MAR          N/A     73  63  69 SW7       29.90F
LA JOLLA SCRIP   N/A     71  63  76 SW9       29.88F
FALLBROOK        N/A     79  63  57 SW3       29.87F
ESCONDIDO        N/A     78  62  56 SW9       29.88F
SAN MARCOS       N/A     73  61  65 S8        29.90F
POWAY            N/A     80  62  54 CALM      29.88F

$$

EAST SAN DIEGO COUNTY

CITY           SKY/WX    TMP DP  RH WIND       PRES   REMARKS
RAMONA         SUNNY     78  59  51 W13       29.89F
SANTEE LAKES     N/A     77  60  56 SW6       29.86F
LA MESA          N/A     75  60  60 W1        29.82F
JAMUL            N/A     76  61  58 CALM      29.88F
DESCANSO N       N/A     72  51  48 SW3       29.82F
CAMPO            N/A     77  50  38 SW16G24   29.88F

$$

ORANGE COUNTY AND THE LOS ANGELES BASIN

CITY           SKY/WX    TMP DP  RH WIND       PRES   REMARKS
JOHN WAYNE AP  MOSUNNY   75  59  57 S13       29.88F
LAGUNA BEACH     N/A     76  65  69 CALM      29.83F
LAKE FOREST FR   N/A     78  58  48 W3        29.76F
HUNTINGTON BCH   N/A     76  64  66 S5        29.89F
LOS ALAMITOS   MOSUNNY   76  59  55 SW13      29.88F
FULLERTON      PTSUNNY   76  60  57 SW7       29.86F
LONG BEACH     PTSUNNY   74  59  59 S9        29.88F
L.A. AP        MOSUNNY   74  61  63 W12       29.89F
L.A. DOWNTOWN  CLOUDY    75  60  59 CALM      29.87F

$$

THE INLAND EMPIRE

CITY           SKY/WX    TMP DP  RH WIND       PRES   REMARKS
CORONA         MOSUNNY   79  59  50 NW9       29.87F
CHINO          MOSUNNY   79  57  46 VRB6      29.88F
ONTARIO        MOSUNNY   76  54  46 VRB6      29.88F
SAN BERNARDINO MOSUNNY   81  50  34 W7        29.88F HAZE
RIVERSIDE AP   MOSUNNY   78  57  48 W5        29.87F
MORENO VALLEY    N/A     80  59  48 W6        28.01F
MARCH ARB      SUNNY     77  54  44 NW3       29.88F
HORSETHIEF CYN   N/A     78  53  41 CALM      29.85F
PERRIS           N/A     80  58  47 CALM        N/A
HEMET EAST       N/A     75  53  45 W5        29.92F
FRENCH VALLEY  FAIR      77  54  44 SW7       29.89F
TEMECULA         N/A     79  59  50 W7        29.89F

$$

SAN BERNARDINO AND RIVERSIDE COUNTY MOUNTAINS

CITY           SKY/WX    TMP DP  RH WIND       PRES   REMARKS
BIG BEAR AP    SUNNY     73  36  25 W15       30.06S
ANGELUS OAKS     N/A     65  49  56 NW1       29.74F
PINE COVE        N/A     65  44  45 W3        29.81

$$

SOUTHERN DESERT INCLUDING THE COACHELLA VALLEY

CITY           SKY/WX    TMP DP  RH WIND       PRES   REMARKS
PALM SPRINGS   SUNNY     91  51  25 NW14G20   29.73F
THOUSAND PALMS   N/A     91  51  25 NW8       29.69F
PALM DESERT      N/A     95  51  22 CALM        N/A
THERMAL        SUNNY     95  46  18 CALM      29.67F
BLYTHE         SUNNY     96  37  12 S10G20    29.69F
IMPERIAL AP    MOSUNNY   99  43  14 SW14G21   29.67F HX  95
EL CENTRO NAS  SUNNY    100  35  10 SW18      29.69F
YUMA AZ        SUNNY     96  43  16 SW12      29.70F
MEXICALI       SUNNY     97  36  11 S3        29.70F

$$

UPPER DESERT

CITY           SKY/WX    TMP DP  RH WIND       PRES   REMARKS
VICTORVILLE AP SUNNY     82  37  20 W20G28    29.85F
HESPERIA         N/A     76  53  44 W5        29.88F
PALMDALE       SUNNY     78  48  34 SW21G28   29.87F
LANCASTER      MOSUNNY   79  47  32 W29G37    29.85F HAZE
EDWARDS AFB    MOSUNNY   82  43  25 SW23G31   29.80F
DAGGETT        SUNNY     89  44  20 SW18G30   29.76F
29 PALMS N     SUNNY     90  31  12 CALM      29.83F
NEEDLES        SUNNY     98  29   8 SW21G26   29.70F

$$

REGIONAL REPORTS

CITY           SKY/WX    TMP DP  RH WIND       PRES   REMARKS
SANTA BARBARA  CLOUDY    71  60  68 SW8       29.89F
SANDBERG       SUNNY     65  48  54 N23G31    29.99F
LAS VEGAS NV   MOSUNNY   88  42  20 S16G29    29.73F
PHOENIX AZ     MOSUNNY   97  39  13 W8        29.74F
TIJUANA        SUNNY     73  57  56 CALM      29.92F
ENSENADA NW      N/A     73  32  22 W6        29.88F

$$

OFFSHORE ISLANDS

CITY           SKY/WX    TMP DP  RH WIND       PRES   REMARKS
CATALINA ARPT  CLOUDY    66  61  84 NE5       29.92F
SAN CLEMENTE I MOSUNNY   71  62  73 NW10      29.91F
SAN NICOLAS IS MOSUNNY   69  57  65 NW16      29.91F

$$

MARINE AND OFFSHORE BUOY REPORTS

STATION/POSITION SKY/WX   TEMP    WIND        PRES    VSBY  SWELL
                          AIR SEA DIR/SP/G                  HT/PER/DIR
                          (F)     (DEG/KT/KT) (MB)    (MI)  (FT/S/D)
TANNER BANKS               65 67  310/ 19/ 21 1012.6F         5/330/ 8
S CLEMENTE BASIN           67 71  270/ 12/ 14 1012.4F         3/280/ 7
SAN NICOLAS IS.               66                N/A           2/190/12
SO. S. ROSA ISLA           63 65  310/ 21/ 25 1012.8F         2/ 70/11
W. S. BARBARA CH           62 64  310/ 21/ 25 1012.5F         3/290/11
M. S. BARBARA CH           65 68  270/ 10/ 12 1013.3F
S. MONICA BASIN               67  300/  6/  6 1012.1F         2/210/11
S PEDRO CHANNEL               71                N/A           2/170/12
CMP PENDLETON NS              69                N/A           2/200/12
OCEANSIDE OFFSHR              71                N/A           2/220/17
TORREY PINES OTR              70                N/A           2/200/11
SAN DIEGO BAY                 73              1012.8F
POINT LOMA SOUTH              72                N/A           2/210/17

$$





USA.gov is the U.S. government's official web portal to all federal, state and local government web resources and services.